Time,TemperatureF,DewpointF,PressureIn,WindDirection,WindDirectionDegrees,WindSpeedMPH,WindSpeedGustMPH,Humidity,HourlyPrecipIn,Conditions,Clouds,dailyrainin,SoftwareType,DateUTC
2014-01-01 00:06:00,-9.4,-13.4,30.05,North,0,0.0,-999.0,82,-99.99,,,0.00,Acu-Link.com,2014-01-01 05:06:00,
2014-01-01 00:21:00,-10.1,-14.3,30.05,North,0,0.0,-999.0,81,-99.99,,,0.00,Acu-Link.com,2014-01-01 05:21:00,
2014-01-01 00:36:00,-10.1,-14.1,30.06,North,0,0.0,-999.0,82,-99.99,,,0.00,Acu-Link.com,2014-01-01 05:36:00,
2014-01-01 00:51:00,-11.9,-17.6,30.06,North,0,0.0,-999.0,75,-99.99,,,0.00,Acu-Link.com,2014-01-01 05:51:00,
2014-01-01 01:07:00,-12.1,-17.2,30.06,North,0,0.0,-999.0,77,-99.99,,,0.00,Acu-Link.com,2014-01-01 06:07:00,
2014-01-01 01:22:00,-12.1,-17.2,30.07,North,0,0.0,-999.0,77,-99.99,,,0.00,Acu-Link.com,2014-01-01 06:22:00,
2014-01-01 01:37:00,-12.6,-18.0,30.08,North,0,0.0,-999.0,76,-99.99,,,0.00,Acu-Link.com,2014-01-01 06:37:00,
2014-01-01 01:52:00,-12.5,-16.8,30.08,North,0,0.0,-999.0,80,-99.99,,,0.00,Acu-Link.com,2014-01-01 06:52:00,
2014-01-01 02:07:00,-12.8,-17.0,30.08,North,0,0.0,-999.0,81,-99.99,,,0.00,Acu-Link.com,2014-01-01 07:07:00,
2014-01-01 02:23:00,-12.6,-17.3,30.09,North,0,0.0,-999.0,79,-99.99,,,0.00,Acu-Link.com,2014-01-01 07:23:00,
2014-01-01 02:38:00,-13.2,-18.3,30.10,North,0,0.0,-999.0,77,-99.99,,,0.00,Acu-Link.com,2014-01-01 07:38:00,
2014-01-01 02:53:00,-13.0,-16.9,30.10,North,0,0.0,-999.0,82,-99.99,,,0.00,Acu-Link.com,2014-01-01 07:53:00,
2014-01-01 03:08:00,-14.3,-20.1,30.10,North,0,0.0,-999.0,74,-99.99,,,0.00,Acu-Link.com,2014-01-01 08:08:00,
2014-01-01 03:24:00,-13.7,-18.3,30.11,North,0,0.0,-999.0,79,-99.99,,,0.00,Acu-Link.com,2014-01-01 08:24:00,
2014-01-01 03:39:00,-12.6,-17.3,30.11,North,0,0.0,-999.0,79,-99.99,,,0.00,Acu-Link.com,2014-01-01 08:39:00,
2014-01-01 03:54:00,-9.9,-13.0,30.12,North,0,0.0,-999.0,86,-99.99,,,0.00,Acu-Link.com,2014-01-01 08:54:00,
2014-01-01 04:09:00,-9.2,-12.7,30.12,North,0,0.0,-999.0,84,-99.99,,,0.00,Acu-Link.com,2014-01-01 09:09:00,
2014-01-01 04:24:00,-8.7,-12.9,30.12,North,0,0.0,-999.0,81,-99.99,,,0.00,Acu-Link.com,2014-01-01 09:24:00,
2014-01-01 04:39:00,-7.8,-11.8,30.13,North,0,0.0,-999.0,82,-99.99,,,0.00,Acu-Link.com,2014-01-01 09:39:00,
2014-01-01 04:55:00,-7.4,-11.4,30.13,North,0,0.0,-999.0,82,-99.99,,,0.00,Acu-Link.com,2014-01-01 09:55:00,
2014-01-01 05:10:00,-7.6,-11.9,30.14,North,0,0.0,-999.0,81,-99.99,,,0.00,Acu-Link.com,2014-01-01 10:10:00,
2014-01-01 05:25:00,-7.8,-12.0,30.14,North,0,0.0,-999.0,81,-99.99,,,0.00,Acu-Link.com,2014-01-01 10:25:00,
2014-01-01 05:40:00,-8.0,-12.2,30.15,North,0,0.0,-999.0,81,-99.99,,,0.00,Acu-Link.com,2014-01-01 10:40:00,
2014-01-01 05:55:00,-8.3,-12.6,30.16,North,0,0.0,-999.0,81,-99.99,,,0.00,Acu-Link.com,2014-01-01 10:55:00,
2014-01-01 06:11:00,-8.5,-12.7,30.17,North,0,0.0,-999.0,81,-99.99,,,0.00,Acu-Link.com,2014-01-01 11:11:00,
2014-01-01 06:26:00,-8.1,-12.1,30.18,North,0,0.0,-999.0,82,-99.99,,,0.00,Acu-Link.com,2014-01-01 11:26:00,
2014-01-01 06:41:00,-7.4,-11.7,30.18,North,0,0.0,-999.0,81,-99.99,,,0.00,Acu-Link.com,2014-01-01 11:41:00,
2014-01-01 06:56:00,-8.1,-12.6,30.18,North,0,0.0,-999.0,80,-99.99,,,0.00,Acu-Link.com,2014-01-01 11:56:00,
2014-01-01 07:11:00,-8.5,-13.0,30.19,North,0,0.0,-999.0,80,-99.99,,,0.00,Acu-Link.com,2014-01-01 12:11:00,
2014-01-01 07:27:00,-8.5,-13.0,30.20,North,0,0.0,-999.0,80,-99.99,,,0.00,Acu-Link.com,2014-01-01 12:27:00,
2014-01-01 07:42:00,-7.6,-12.1,30.21,North,0,0.0,-999.0,80,-99.99,,,0.00,Acu-Link.com,2014-01-01 12:42:00,
2014-01-01 07:57:00,-7.6,-12.3,30.21,North,0,0.0,-999.0,79,-99.99,,,0.00,Acu-Link.com,2014-01-01 12:57:00,
2014-01-01 08:12:00,-7.8,-12.8,30.21,North,0,0.0,-999.0,78,-99.99,,,0.00,Acu-Link.com,2014-01-01 13:12:00,
2014-01-01 08:27:00,-8.0,-13.0,30.23,North,0,0.0,-999.0,78,-99.99,,,0.00,Acu-Link.com,2014-01-01 13:27:00,
2014-01-01 08:43:00,-6.9,-12.2,30.24,North,0,0.0,-999.0,77,-99.99,,,0.00,Acu-Link.com,2014-01-01 13:43:00,
2014-01-01 08:58:00,-6.5,-12.3,30.24,North,0,0.0,-999.0,75,-99.99,,,0.00,Acu-Link.com,2014-01-01 13:58:00,
2014-01-01 09:13:00,-6.0,-13.2,30.24,North,0,0.0,-999.0,70,-99.99,,,0.00,Acu-Link.com,2014-01-01 14:13:00,
2014-01-01 09:28:00,-5.4,-13.5,30.24,North,0,0.0,-999.0,67,-99.99,,,0.00,Acu-Link.com,2014-01-01 14:28:00,
2014-01-01 09:44:00,-4.7,-14.1,30.25,North,0,0.0,-999.0,63,-99.99,,,0.00,Acu-Link.com,2014-01-01 14:44:00,
2014-01-01 09:59:00,-3.8,-13.2,30.26,North,0,0.0,-999.0,63,-99.99,,,0.00,Acu-Link.com,2014-01-01 14:59:00,
2014-01-01 10:14:00,-3.1,-12.5,30.29,SW,225,0.0,-999.0,63,-99.99,,,0.00,Acu-Link.com,2014-01-01 15:14:00,
2014-01-01 10:29:00,-1.8,-12.3,30.30,SW,225,0.0,-999.0,60,-99.99,,,0.00,Acu-Link.com,2014-01-01 15:29:00,
2014-01-01 10:44:00,-3.1,-13.8,30.29,SE,135,0.0,-999.0,59,-99.99,,,0.00,Acu-Link.com,2014-01-01 15:44:00,
2014-01-01 11:00:00,-3.3,-14.7,30.30,SW,225,0.0,-999.0,57,-99.99,,,0.00,Acu-Link.com,2014-01-01 16:00:00,
2014-01-01 11:15:00,-0.9,-13.2,30.30,North,0,0.0,-999.0,55,-99.99,,,0.00,Acu-Link.com,2014-01-01 16:15:00,
2014-01-01 11:30:00,0.0,-10.6,30.29,SW,225,0.0,-999.0,60,-99.99,,,0.00,Acu-Link.com,2014-01-01 16:30:00,
2014-01-01 11:45:00,0.3,-12.7,30.29,North,0,0.0,-999.0,53,-99.99,,,0.00,Acu-Link.com,2014-01-01 16:45:00,
2014-01-01 12:00:00,-1.1,-14.4,30.28,North,0,0.0,-999.0,52,-99.99,,,0.00,Acu-Link.com,2014-01-01 17:00:00,
2014-01-01 12:16:00,0.1,-14.0,30.31,North,0,0.0,-999.0,50,-99.99,,,0.00,Acu-Link.com,2014-01-01 17:16:00,
2014-01-01 12:31:00,-0.2,-14.0,30.31,North,0,0.0,-999.0,51,-99.99,,,0.00,Acu-Link.com,2014-01-01 17:31:00,
2014-01-01 12:46:00,-1.7,-16.1,30.32,North,0,0.0,-999.0,49,-99.99,,,0.00,Acu-Link.com,2014-01-01 17:46:00,
2014-01-01 13:01:00,-2.0,-16.1,30.32,North,0,0.0,-999.0,50,-99.99,,,0.00,Acu-Link.com,2014-01-01 18:01:00,
2014-01-01 13:17:00,-2.4,-16.4,30.33,North,0,0.0,-999.0,50,-99.99,,,0.00,Acu-Link.com,2014-01-01 18:17:00,
2014-01-01 13:32:00,-3.8,-17.0,30.33,North,0,0.0,-999.0,52,-99.99,,,0.00,Acu-Link.com,2014-01-01 18:32:00,
2014-01-01 13:47:00,-4.0,-16.8,30.33,North,0,0.0,-999.0,53,-99.99,,,0.00,Acu-Link.com,2014-01-01 18:47:00,
2014-01-01 14:02:00,-5.3,-17.6,30.34,North,0,0.0,-999.0,54,-99.99,,,0.00,Acu-Link.com,2014-01-01 19:02:00,
2014-01-01 14:18:00,-5.8,-17.7,30.35,North,0,0.0,-999.0,55,-99.99,,,0.00,Acu-Link.com,2014-01-01 19:18:00,
2014-01-01 14:33:00,-6.5,-17.7,30.35,North,0,0.0,-999.0,57,-99.99,,,0.00,Acu-Link.com,2014-01-01 19:33:00,
2014-01-01 14:48:00,-8.0,-19.4,30.35,North,0,0.0,-999.0,56,-99.99,,,0.00,Acu-Link.com,2014-01-01 19:48:00,
2014-01-01 15:03:00,-8.9,-19.9,30.35,North,0,0.0,-999.0,57,-99.99,,,0.00,Acu-Link.com,2014-01-01 20:03:00,
2014-01-01 15:19:00,-9.6,-20.9,30.35,North,0,0.0,-999.0,56,-99.99,,,0.00,Acu-Link.com,2014-01-01 20:19:00,
2014-01-01 15:34:00,-9.9,-22.0,30.36,North,0,0.0,-999.0,54,-99.99,,,0.00,Acu-Link.com,2014-01-01 20:34:00,
2014-01-01 15:49:00,-10.8,-22.8,30.36,North,0,0.0,-999.0,54,-99.99,,,0.00,Acu-Link.com,2014-01-01 20:49:00,
2014-01-01 16:04:00,-11.4,-23.0,30.37,North,0,0.0,-999.0,55,-99.99,,,0.00,Acu-Link.com,2014-01-01 21:04:00,
2014-01-01 16:19:00,-12.1,-23.0,30.38,North,0,0.0,-999.0,57,-99.99,,,0.00,Acu-Link.com,2014-01-01 21:19:00,
2014-01-01 16:35:00,-12.8,-23.3,30.38,North,0,0.0,-999.0,58,-99.99,,,0.00,Acu-Link.com,2014-01-01 21:35:00,
2014-01-01 16:50:00,-13.4,-23.2,30.38,North,0,0.0,-999.0,60,-99.99,,,0.00,Acu-Link.com,2014-01-01 21:50:00,
2014-01-01 17:05:00,-13.7,-23.6,30.39,North,0,0.0,-999.0,60,-99.99,,,0.00,Acu-Link.com,2014-01-01 22:05:00,
2014-01-01 17:20:00,-14.4,-24.2,30.39,North,0,0.0,-999.0,60,-99.99,,,0.00,Acu-Link.com,2014-01-01 22:20:00,
2014-01-01 17:35:00,-15.0,-24.4,30.40,North,0,0.0,-999.0,61,-99.99,,,0.00,Acu-Link.com,2014-01-01 22:35:00,
2014-01-01 17:51:00,-15.5,-24.7,30.40,North,0,0.0,-999.0,62,-99.99,,,0.00,Acu-Link.com,2014-01-01 22:51:00,
2014-01-01 18:06:00,-15.7,-24.8,30.40,North,0,0.0,-999.0,62,-99.99,,,0.00,Acu-Link.com,2014-01-01 23:06:00,
2014-01-01 18:21:00,-16.4,-25.2,30.40,North,0,0.0,-999.0,63,-99.99,,,0.00,Acu-Link.com,2014-01-01 23:21:00,
2014-01-01 18:36:00,-17.7,-25.8,30.41,North,0,0.0,-999.0,65,-99.99,,,0.00,Acu-Link.com,2014-01-01 23:36:00,
2014-01-01 18:51:00,-18.0,-26.2,30.41,North,0,0.0,-999.0,65,-99.99,,,0.00,Acu-Link.com,2014-01-01 23:51:00,
2014-01-01 19:07:00,-17.7,-25.8,30.42,North,0,0.0,-999.0,65,-99.99,,,0.00,Acu-Link.com,2014-01-02 00:07:00,
2014-01-01 19:22:00,-18.2,-26.4,30.42,North,0,0.0,-999.0,65,-99.99,,,0.00,Acu-Link.com,2014-01-02 00:22:00,
2014-01-01 19:37:00,-18.8,-26.9,30.42,North,0,0.0,-999.0,65,-99.99,,,0.00,Acu-Link.com,2014-01-02 00:37:00,
2014-01-01 19:52:00,-19.5,-27.6,30.42,North,0,0.0,-999.0,65,-99.99,,,0.00,Acu-Link.com,2014-01-02 00:52:00,
2014-01-01 20:07:00,-19.8,-27.6,30.42,North,0,0.0,-999.0,66,-99.99,,,0.00,Acu-Link.com,2014-01-02 01:07:00,
2014-01-01 20:23:00,-20.2,-28.0,30.42,North,0,0.0,-999.0,66,-99.99,,,0.00,Acu-Link.com,2014-01-02 01:23:00,
2014-01-01 20:38:00,-20.6,-28.0,30.43,North,0,0.0,-999.0,67,-99.99,,,0.00,Acu-Link.com,2014-01-02 01:38:00,
2014-01-01 20:53:00,-20.7,-28.2,30.43,North,0,0.0,-999.0,67,-99.99,,,0.00,Acu-Link.com,2014-01-02 01:53:00,
2014-01-01 21:08:00,-20.7,-28.2,30.44,North,0,0.0,-999.0,67,-99.99,,,0.00,Acu-Link.com,2014-01-02 02:08:00,
2014-01-01 21:23:00,-21.1,-28.6,30.44,North,0,0.0,-999.0,67,-99.99,,,0.00,Acu-Link.com,2014-01-02 02:23:00,
2014-01-01 21:39:00,-21.5,-28.9,30.44,North,0,0.0,-999.0,67,-99.99,,,0.00,Acu-Link.com,2014-01-02 02:39:00,
2014-01-01 21:54:00,-21.5,-28.9,30.43,North,0,0.0,-999.0,67,-99.99,,,0.00,Acu-Link.com,2014-01-02 02:54:00,
2014-01-01 22:09:00,-22.2,-29.6,30.44,North,0,0.0,-999.0,67,-99.99,,,0.00,Acu-Link.com,2014-01-02 03:09:00,
2014-01-01 22:24:00,-22.4,-29.8,30.44,North,0,0.0,-999.0,67,-99.99,,,0.00,Acu-Link.com,2014-01-02 03:24:00,
2014-01-01 22:39:00,-23.1,-30.5,30.45,North,0,0.0,-999.0,67,-99.99,,,0.00,Acu-Link.com,2014-01-02 03:39:00,
2014-01-01 22:55:00,-23.4,-30.8,30.45,North,0,0.0,-999.0,67,-99.99,,,0.00,Acu-Link.com,2014-01-02 03:55:00,
2014-01-01 23:10:00,-23.1,-30.2,30.45,North,0,0.0,-999.0,68,-99.99,,,0.00,Acu-Link.com,2014-01-02 04:10:00,
2014-01-01 23:25:00,-23.3,-30.6,30.44,North,0,0.0,-999.0,67,-99.99,,,0.00,Acu-Link.com,2014-01-02 04:25:00,
2014-01-01 23:40:00,-24.2,-31.8,30.44,North,0,0.0,-999.0,66,-99.99,,,0.00,Acu-Link.com,2014-01-02 04:40:00,
2014-01-01 23:56:00,-24.2,-31.8,30.44,North,0,0.0,-999.0,66,-99.99,,,0.00,Acu-Link.com,2014-01-02 04:56:00,